[[{"header":{"parameterUnit":"m.s-1","parameterCategory":1,"la1":30.2991,"la2":30.254,"lo1":-89.0895,"lo2":-89.0444,"dy":0.0017,"dx":0.0017,"nx":28,"ny":28,"refTime":"2024-05-11T21:00:00:Z","depth":0,"parameterNumber":2,"parameterNumberName":"U-component_of_WINDS"},"data":[0,0,0,0,0,0,0,0,0,0,0,0,0,0,0,0,0,0,0,0,0,0,0,0,0,0,0,0,0,0,0,0,0,0,0,0,0,0,0,0,0,0,0,0,0,0,0,0,0,0,0,0,0,0,0,0,0,0,-6.1103,-6.1105,0,-6.1219,-6.122,-6.1221,-6.1174,-6.1171,-6.1168,-6.1166,-6.1279,-6.1285,-6.129,0,0,0,0,0,0,0,0,0,0,0,0,0,-6.0838,-6.0843,-6.1103,-6.1105,-6.1106,-6.1218,-6.122,-6.1222,-6.1174,-6.1171,-6.1168,-6.1164,-6.1277,-6.1284,-6.1291,0,0,0,0,0,0,0,0,0,0,0,0,0,-6.0953,-6.0845,-6.1103,-6.1096,-6.1097,-6.1218,-6.122,-6.1222,-6.1175,-6.1171,-6.1167,-6.1163,-6.1275,-6.1283,-6.1291,-6.1425,0,0,-6.1317,-6.1321,0,0,0,0,0,0,0,0,-6.0947,-6.0963,-6.1096,-6.1097,-6.1098,-6.1178,-6.1168,-6.129,-6.1176,-6.1145,-6.1166,-6.1161,-6.1248,-6.1259,-6.1289,-6.143,-6.1435,-6.1318,-6.1323,-6.1326,-6.1329,0,0,0,0,0,0,0,-6.0939,-6.0958,-6.1149,-6.1098,-6.1099,-6.1086,-6.1098,-6.1191,-6.1218,-6.1147,-6.1144,-6.1159,-6.1248,-6.1281,-6.1291,-6.1437,-6.1317,-6.1325,-6.133,-6.1333,-6.1692,-6.1696,0,0,0,0,0,0,-6.0931,-6.0952,-6.1145,-6.1152,-6.1011,-6.1094,-6.1107,-6.1156,-6.1217,-6.1222,-6.1162,-6.1156,-6.1269,-6.1282,-6.1295,-6.1454,-6.1326,-6.1334,-6.1339,-6.1687,-6.1693,-6.1698,0,0,0,0,0,0,-6.0926,-6.0949,-6.114,-6.1051,-6.1075,-6.1103,-6.1158,-6.1161,-6.1193,-6.1228,-6.1232,-6.1191,-6.1266,-6.1283,-6.1393,-6.1457,-6.1338,-6.1345,-6.1682,-6.1689,-6.1695,-6.1773,0,0,0,0,0,0,-6.0919,-6.0947,-6.0999,-6.1053,-6.108,-6.1238,-6.1162,-6.1166,-6.1209,-6.1202,-6.1257,-6.1262,-6.1264,-6.1381,-6.1401,-6.1466,-6.1352,-6.1676,-6.1685,-6.1693,-6.1765,-6.1781,-6.1796,0,0,0,0,0,-6.0909,-6.1016,-6.1002,-6.1026,-6.1145,-6.1242,-6.1257,-6.1259,-6.1214,-6.1265,-6.1288,-6.126,-6.1448,-6.1393,-6.1415,-6.1484,-6.1672,-6.1683,-6.1692,-6.1758,-6.1778,-6.1796,0,0,0,0,0,0,-6.0967,-6.1023,-6.1008,-6.1136,-6.1185,-6.1233,-6.1298,-6.1281,-6.1342,-6.1333,-6.1332,-6.1345,-6.1457,-6.1482,-6.1419,-6.1615,-6.1553,-6.1568,-6.1595,-6.1614,-6.163,-6.162,-6.1359,0,0,0,0,0,-6.0996,-6.1071,-6.1114,-6.1222,-6.1248,-6.1269,-6.1311,-6.1309,-6.1359,-6.1379,-6.1409,-6.1457,-6.1527,-6.1573,-6.1639,-6.1769,-6.1779,-6.1828,-6.1843,-6.1856,-6.1868,-6.1937,-6.1958,-6.1731,-6.1731,-6.1731,0,0,-6.1053,-6.1093,-6.114,-6.1235,-6.1273,-6.1349,-6.1287,-6.137,-6.1426,-6.1391,-6.1496,-6.152,-6.1574,-6.1694,-6.1749,-6.1718,-6.1934,-6.1869,-6.1879,-6.1884,-6.1949,-6.1971,-6.199,-6.1738,-6.1737,-6.1736,0,0,-6.1197,-6.1236,-6.1329,-6.1368,-6.1427,-6.144,-6.1463,-6.1515,-6.153,-6.1637,-6.1612,-6.1678,-6.1798,-6.1837,-6.1873,-6.2033,-6.2008,-6.2055,-6.2135,-6.2202,-6.222,-6.2236,-6.229,-6.231,-6.2067,-6.2068,-6.2068,0,-6.126,-6.1375,-6.1379,-6.1464,-6.1506,-6.1481,-6.1574,-6.1612,-6.1688,-6.1717,-6.1683,-6.1833,-6.1868,-6.1996,-6.2035,-6.2066,-6.209,-6.2046,-6.2217,-6.2233,-6.2248,-6.23,-6.2321,-6.2073,-6.2072,-6.2071,-6.2071,0,-6.1449,-6.153,-6.1598,-6.1674,-6.1724,-6.1813,-6.1829,-6.1879,-6.1873,-6.189,-6.1997,-6.2039,-6.2112,-6.2143,-6.2138,-6.2271,-6.225,-6.2217,-6.2153,-6.2274,-6.2323,-6.2343,-6.208,-6.2078,-6.2076,-6.2075,0,0,-6.163,-6.1708,-6.1733,-6.1766,-6.1829,-6.189,-6.1979,-6.2052,-6.2093,-6.2148,-6.222,-6.2324,-6.2294,-6.2334,-6.2333,-6.2393,-6.2514,-6.2352,-6.2353,-6.2378,-6.266,-6.2682,-6.2705,-6.25,-6.2504,-6.2507,-6.2655,0,-6.1776,-6.1931,-6.1937,-6.2077,-6.215,-6.2128,-6.2204,-6.225,-6.2269,-6.2333,-6.2353,-6.2425,-6.2382,-6.2406,-6.2465,-6.2487,-6.257,-6.2477,-6.2564,-6.2567,-6.2548,-6.2731,-6.2755,-6.2891,-6.2674,-6.2677,-6.268,0,-6.1966,-6.2027,-6.2175,-6.2228,-6.2258,-6.2327,-6.2394,-6.2456,-6.2508,-6.2518,-6.2564,-6.2555,-6.2643,-6.258,-6.27,-6.2636,-6.2673,-6.269,-6.2695,-6.27,-6.2628,-6.2738,-6.2936,-6.2955,-6.271,-6.2708,-6.2705,0,-6.2079,-6.2199,-6.2302,-6.2332,-6.2397,-6.2445,-6.2474,-6.2522,-6.2566,-6.2625,-6.2653,-6.2721,-6.2758,-6.281,-6.2819,-6.2773,-6.2939,-6.2877,-6.2947,-6.2947,-6.298,-6.2977,-6.3183,-6.301,-6.301,-6.3009,-6.3009,0,-6.2239,-6.233,-6.2354,-6.2417,-6.2518,-6.2525,-6.2623,-6.2649,-6.2692,-6.2759,-6.2744,-6.2807,-6.2817,-6.2881,-6.2889,-6.2986,-6.3004,-6.3012,-6.3013,-6.3012,-6.301,-6.3033,-6.3022,-6.3015,-6.3013,-6.3012,-6.3011,0,-6.2381,-6.2401,-6.2512,-6.2565,-6.258,-6.2652,-6.2696,-6.2756,-6.2774,-6.2859,-6.2879,-6.2907,-6.2983,-6.2998,-6.3087,-6.3092,-6.3207,-6.32,-6.319,-6.3188,-6.3256,-6.3248,-6.3481,-6.351,-6.3321,-6.3323,-6.3324,0,-6.2481,-6.255,-6.261,-6.2655,-6.2686,-6.2758,-6.2802,-6.2812,-6.2859,-6.2924,-6.2976,-6.305,-6.3109,-6.3231,-6.3258,-6.3326,-6.3318,-6.3395,-6.3328,-6.3325,-6.3316,-6.331,-6.3316,-6.3407,-6.3409,-6.341,-6.3412,0,-6.2654,-6.2661,-6.2726,-6.2796,-6.285,-6.2905,-6.2957,-6.2994,-6.301,-6.3063,-6.3141,-6.3188,-6.3279,-6.3352,-6.3421,-6.3449,-6.3433,-6.3434,-6.3453,-6.3451,-6.3441,-6.3444,-6.3221,-6.3427,-6.3426,-6.3424,-6.3424,-6.3423,-6.2775,-6.2835,-6.2887,-6.2961,-6.3001,-6.305,-6.3109,-6.3135,-6.3201,-6.3276,-6.3278,-6.3363,-6.3412,-6.3503,-6.3536,-6.3601,-6.3576,-6.3605,-6.3611,-6.3617,-6.3622,-6.3434,-6.3613,-6.3613,-6.3613,-6.3612,-6.3612,0,-6.2945,-6.2978,-6.3046,-6.312,-6.3177,-6.316,-6.3217,-6.3265,-6.334,-6.3389,-6.3448,-6.3537,-6.3608,-6.3642,-6.3712,-6.3757,-6.3752,-6.3775,-6.377,-6.3776,-6.3642,-6.3617,-6.3779,-6.3779,-6.3779,-6.3778,-6.3778,-6.3778,-6.304,-6.314,-6.3153,-6.3273,-6.3305,-6.3388,-6.3422,-6.3467,-6.3505,-6.3605,-6.3665,-6.3687,-6.373,-6.3803,-6.3867,-6.3875,-6.39,-6.3926,-6.3931,-6.3803,-6.3786,-6.377,-6.3746,-6.3933,-6.3933,-6.406,-6.4061,-6.4062]},{"header":{"parameterUnit":"m.s-1","parameterCategory":1,"la1":30.2991,"la2":30.254,"lo1":-89.0895,"lo2":-89.0444,"dy":0.0017,"dx":0.0017,"nx":28,"ny":28,"refTime":"2024-05-11T21:00:00:Z","depth":0,"parameterNumber":3,"parameterNumberName":"V-component_of_WINDS"},"data":[0,0,0,0,0,0,0,0,0,0,0,0,0,0,0,0,0,0,0,0,0,0,0,0,0,0,0,0,0,0,0,0,0,0,0,0,0,0,0,0,0,0,0,0,0,0,0,0,0,0,0,0,0,0,0,0,0,0,4.979,4.979,0,4.979,4.979,4.979,4.9703,4.97,4.9698,4.9696,4.9694,4.9696,4.9698,0,0,0,0,0,0,0,0,0,0,0,0,0,4.9714,4.9716,4.979,4.979,4.979,4.979,4.979,4.979,4.9703,4.97,4.9697,4.9695,4.9694,4.9696,4.9699,0,0,0,0,0,0,0,0,0,0,0,0,0,4.9734,4.9716,4.979,4.9746,4.9743,4.979,4.979,4.979,4.9704,4.97,4.9697,4.9694,4.9693,4.9696,4.9699,4.9787,0,0,4.9709,4.971,0,0,0,0,0,0,0,0,4.9733,4.9736,4.9753,4.9749,4.9745,4.9743,4.9762,4.9789,4.9704,4.9718,4.9696,4.9692,4.9713,4.9714,4.9722,4.9787,4.9787,4.9709,4.9711,4.9712,4.9713,0,0,0,0,0,0,0,4.9731,4.9736,4.9789,4.9753,4.9749,4.9727,4.9726,4.9767,4.9735,4.9717,4.9711,4.9712,4.971,4.9719,4.9721,4.9787,4.9709,4.9711,4.9713,4.9715,4.9924,4.9927,0,0,0,0,0,0,4.9736,4.9735,4.9789,4.9789,4.973,4.9731,4.973,4.9747,4.9734,4.9729,4.9715,4.9708,4.9715,4.9718,4.9721,4.9822,4.9712,4.9715,4.9717,4.992,4.9925,4.9929,0,0,0,0,0,0,4.9735,4.9742,4.9789,4.9761,4.9765,4.9736,4.9756,4.9749,4.9757,4.9733,4.9726,4.9729,4.9713,4.9716,4.9771,4.9821,4.9716,4.9719,4.9916,4.9922,4.9927,5.0025,0,0,0,0,0,0,4.9733,4.9742,4.9775,4.9762,4.9767,4.984,4.9759,4.9751,4.9763,4.9754,4.9745,4.974,4.971,4.9767,4.9774,4.9823,4.9722,4.9911,4.9918,4.9925,5.0018,5.0034,5.0047,0,0,0,0,0,4.973,4.9802,4.9777,4.9784,4.9808,4.9843,4.9846,4.9811,4.9767,4.98,4.9785,4.974,4.9815,4.9773,4.9781,4.9831,4.9908,4.9916,4.9924,5.0011,5.0031,5.0047,0,0,0,0,0,0,4.9819,4.9799,4.9771,4.9841,4.9845,4.9828,4.9868,4.9833,4.9848,4.9839,4.9794,4.9793,4.9855,4.9849,4.9803,4.9916,4.9854,4.9864,4.9917,4.9935,4.995,4.9949,4.9724,0,0,0,0,0,4.9848,4.9879,4.9859,4.9923,4.9926,4.9898,4.9912,4.9885,4.9886,4.9887,4.9875,4.9879,4.9902,4.9919,4.994,5.0018,5.0014,5.0056,5.0071,5.0084,5.0092,5.0132,5.015,4.9956,4.9956,4.9956,0,0,4.9905,4.9898,4.992,4.9941,4.994,4.9973,4.9899,4.9936,4.996,4.9892,4.9943,4.9936,4.9936,5.0003,5.0031,4.9999,5.0146,5.0094,5.0104,5.0106,5.0143,5.0161,5.0177,4.9961,4.996,4.996,0,0,5.0026,5.0025,5.0077,5.0079,5.008,5.0061,5.0074,5.0064,5.0056,5.0107,5.0057,5.0085,5.0127,5.013,5.0136,5.0262,5.0221,5.027,5.0347,5.0387,5.0402,5.0415,5.0458,5.0475,5.0279,5.028,5.028,0,5.0097,5.0144,5.0108,5.0149,5.016,5.0102,5.0155,5.0158,5.0166,5.0174,5.0139,5.0192,5.0188,5.0254,5.0285,5.0293,5.0306,5.0269,5.0403,5.0416,5.0428,5.0468,5.0485,5.0285,5.0285,5.0284,5.0283,0,5.0231,5.0265,5.0307,5.0317,5.0333,5.0379,5.035,5.0371,5.0344,5.0328,5.0381,5.0375,5.0394,5.0408,5.0382,5.0471,5.0451,5.0411,5.0346,5.0453,5.049,5.0505,5.0294,5.0291,5.029,5.0288,0,0,5.0404,5.0396,5.0411,5.0415,5.0414,5.0439,5.0484,5.0503,5.0521,5.053,5.0565,5.0604,5.0566,5.0574,5.0548,5.0584,5.0682,5.0538,5.0537,5.0563,5.0779,5.0808,5.0827,5.0657,5.066,5.0662,5.0778,0,5.0519,5.0595,5.0565,5.0643,5.0674,5.0622,5.0661,5.0664,5.0652,5.0676,5.0663,5.069,5.064,5.0644,5.0677,5.0663,5.0724,5.0655,5.0688,5.0689,5.0686,5.0846,5.0877,5.0987,5.0793,5.0795,5.0797,0,5.0663,5.0679,5.076,5.0754,5.0766,5.0802,5.0817,5.0842,5.0845,5.0834,5.0844,5.0811,5.0854,5.0793,5.0852,5.0805,5.0818,5.0813,5.0817,5.0816,5.0748,5.0848,5.1021,5.1037,5.082,5.0818,5.0817,0,5.0779,5.0821,5.0875,5.088,5.0875,5.0901,5.09,5.09,5.0914,5.0928,5.0937,5.0956,5.0966,5.0981,5.0954,5.0912,5.1016,5.0953,5.1007,5.1008,5.1028,5.1027,5.1204,5.1041,5.1041,5.1041,5.104,0,5.091,5.0961,5.0927,5.096,5.1016,5.0982,5.1039,5.1032,5.1033,5.1063,5.102,5.105,5.1013,5.1039,5.1018,5.1069,5.1075,5.1066,5.1059,5.1068,5.1069,5.1074,5.1064,5.1045,5.1044,5.1043,5.1043,0,5.1047,5.1026,5.1081,5.1073,5.1073,5.1114,5.1107,5.1137,5.1123,5.1163,5.117,5.1148,5.1176,5.1152,5.1179,5.1165,5.1233,5.1216,5.1232,5.1226,5.1281,5.1275,5.1464,5.1487,5.1312,5.1314,5.1315,0,5.113,5.1169,5.1166,5.1183,5.1185,5.1215,5.1229,5.1199,5.1215,5.1223,5.1252,5.1278,5.1296,5.1344,5.133,5.1351,5.1333,5.1398,5.1336,5.1344,5.1332,5.1329,5.1332,5.141,5.1412,5.1414,5.1415,0,5.128,5.1268,5.1291,5.1311,5.133,5.1344,5.1355,5.1372,5.1341,5.1362,5.1391,5.1406,5.1435,5.146,5.1477,5.1475,5.144,5.1436,5.1449,5.1457,5.1463,5.1459,5.1264,5.143,5.1429,5.1428,5.1427,5.1426,5.1391,5.1423,5.1426,5.1453,5.1459,5.147,5.1498,5.1489,5.1513,5.1534,5.1515,5.155,5.1554,5.1573,5.1576,5.1603,5.1576,5.1595,5.16,5.1604,5.1611,5.1462,5.1606,5.1606,5.1605,5.1605,5.1605,0,5.1536,5.1536,5.1562,5.1579,5.1601,5.1569,5.1579,5.1599,5.1631,5.1638,5.1657,5.1691,5.1716,5.1706,5.1728,5.1751,5.1735,5.1758,5.1754,5.1754,5.1635,5.1621,5.177,5.177,5.177,5.177,5.177,5.177,5.1614,5.1666,5.1656,5.171,5.171,5.1745,5.1754,5.1764,5.1769,5.181,5.183,5.1824,5.1824,5.1846,5.1867,5.1863,5.1872,5.19,5.1891,5.1779,5.1763,5.1747,5.1733,5.1903,5.1903,5.2007,5.2008,5.2009]}]]